Tracking 21611 objects as of 21-Oct-2020
HD Live streaming from Space Station
objects crossing your sky now

COSMOS 574

Track COSMOS 574 now!
10-day predictions
COSMOS 574 is classified as:


NORAD ID: 6707
Int'l Code: 1973-042A
Perigee: 983.9 km
Apogee: 1,013.9 km
Inclination: 82.9 °
Period: 104.9 minutes
Semi major axis: 7369 km
RCS: 1.6655 m2 (large)
Launch date: June 20, 1973
Source: Commonwealth of Independent States (former USSR) (CIS)
Launch site: PLESETSK MISSILE AND SPACE COMPLEX (PKMTR)
aabbcc
Your satellite tracking list
Your tracking list is empty




NASA's NSSDC Master Catalog

Two Line Element Set (TLE):
1  6707U 73042A   20294.74258259 +.00000028 +00000-0 +13854-4 0  9990
2  6707 082.9461 275.1770 0020342 221.1315 312.5300 13.72176598807678
Source of the keplerian elements: AFSPC